Latest Weather Observations for Kuitpo

IDS60901

Issued at 3:01 pm CDT Monday 30 March 2015 (issued every 10 minutes, with the page automatically refreshed every 10 minutes)

About weather observations | Map of Adelaide area stations | Latest observations for Adelaide area | Other Formats
Station Details ID: 023887 Name: KUITPO FOREST RESERVE Lat: -35.17 Lon: 138.68 Height: 365.0 m
Data from the previous 72 hours. | See also: Recent months at Kuitpo
Date/Time
CDT
Tmp

°C
App
Tmp
°C
Dew
Point
°C
Rel
Hum
%
Delta-T

°C
Wind Press
QNH
hPa
Press
MSL
hPa
Rain
since
9 am
mm
Dir
 
Spd
km/h
Gust
km/h
Spd
kts
Gust
kts
30/03:00pm 22.8 20.1 11.8 50 6.3 W 17 26 9 14 1023.3 1022.3 0.0
30/02:30pm 22.3 19.6 11.7 51 6.0 W 17 24 9 13 1023.4 1022.4 0.0
30/02:00pm 22.7 20.8 11.7 49 6.3 W 13 24 7 13 1023.6 1022.7 0.0
30/01:30pm 22.9 20.1 10.0 44 7.1 W 15 22 8 12 1023.8 1022.9 0.0
30/01:00pm 22.4 20.5 8.9 42 7.3 NW 9 17 5 9 1024.0 1023.1 0.0
30/12:30pm 22.3 20.4 9.1 43 7.2 SW 9 15 5 8 1024.3 1023.4 0.0
30/12:00pm 21.0 19.8 9.6 48 6.2 WSW 6 15 3 8 1024.6 1023.7 0.0
30/11:30am 21.4 20.8 10.3 49 6.1 SE 4 7 2 4 1025.0 1024.0 0.0
30/11:00am 19.9 18.8 10.6 55 5.1 NE 7 13 4 7 1025.2 1024.2 0.0
30/10:30am 18.7 17.2 12.0 65 3.8 NE 11 17 6 9 1025.2 1024.2 0.0
30/10:00am 18.2 17.0 12.9 71 3.0 ENE 11 17 6 9 1025.1 1024.1 0.0
30/09:30am 16.5 14.9 12.8 79 2.1 ENE 13 19 7 10 1025.0 1024.0 0.0
30/09:00am 14.9 13.9 12.4 85 1.4 ENE 9 13 5 7 1024.6 1023.7 0.0
30/08:30am 13.9 13.1 13.9 100 0.0 ENE 11 15 6 8 1024.2 1023.3 0.0
30/08:00am 12.5 10.8 12.5 100 0.0 ENE 13 15 7 8 1023.9 1023.0 0.0
30/07:30am 12.2 10.4 12.2 100 0.0 ENE 13 15 7 8 1023.5 1022.5 0.0
30/07:00am 13.1 11.6 13.1 100 0.0 E 13 15 7 8 1023.3 1022.3 0.0
30/06:30am 13.1 12.0 13.1 100 0.0 E 11 15 6 8 1022.9 1021.9 0.0
30/06:00am 13.1 11.6 13.1 100 0.0 E 13 15 7 8 1022.7 1021.7 0.0
30/05:30am 12.6 11.2 11.0 90 0.9 ENE 9 13 5 7 1022.5 1021.5 0.0
30/05:00am 12.2 10.8 9.6 84 1.3 NE 7 11 4 6 1022.3 1021.3 0.0
30/04:30am 12.0 10.5 9.0 82 1.5 NE 7 11 4 6 1022.4 1021.4 0.0
30/04:00am 12.9 11.1 9.4 79 1.8 ENE 9 11 5 6 1022.4 1021.4 0.0
30/03:30am 13.1 11.2 9.2 77 2.0 NE 9 11 5 6 1022.4 1021.4 0.0
30/03:00am 13.7 12.1 10.3 80 1.8 NE 9 11 5 6 1022.6 1021.6 0.0
30/02:30am 13.2 11.6 10.2 82 1.6 NNE 9 11 5 6 1022.9 1021.9 0.0
30/02:00am 13.9 12.9 11.1 83 1.5 ENE 7 9 4 5 1022.8 1021.8 0.0
30/01:30am 14.5 13.7 11.6 83 1.6 ESE 7 9 4 5 1023.0 1022.0 0.0
30/01:00am 14.8 14.0 11.6 81 1.8 ESE 7 7 4 4 1023.1 1022.1 0.0
30/12:30am 14.9 14.0 10.5 75 2.3 SE 6 7 3 4 1023.3 1022.3 0.0
30/12:00am 15.2 13.7 9.1 67 3.2 SE 7 7 4 4 1023.2 1022.2 0.0
 
Date/Time
CDT
Tmp

°C
App
Tmp
°C
Dew
Point
°C
Rel
Hum
%
Delta-T

°C
Wind Press
QNH
hPa
Press
MSL
hPa
Rain
since
9 am
mm
Dir
 
Spd
km/h
Gust
km/h
Spd
kts
Gust
kts
29/11:30pm 15.5 13.8 8.5 63 3.6 SSE 7 9 4 5 1023.3 1022.3 0.0
29/11:00pm 16.2 14.0 5.5 49 5.2 S 6 7 3 4 1023.4 1022.4 0.0
29/10:30pm 16.3 15.5 6.4 52 4.9 CALM 0 0 0 0 1023.5 1022.5 0.0
29/10:00pm 16.2 14.3 7.7 57 4.3 SW 7 9 4 5 1023.1 1022.1 0.0
29/09:30pm 16.8 15.4 8.8 59 4.2 SW 6 9 3 5 1023.0 1022.0 0.0
29/09:00pm 17.1 16.9 9.0 59 4.3 CALM 0 0 0 0 1022.7 1021.7 0.0
29/08:30pm 17.1 15.6 9.0 59 4.3 WSW 7 9 4 5 1022.5 1021.5 0.0
29/08:00pm 17.2 15.7 9.1 59 4.3 WSW 7 9 4 5 1022.3 1021.3 0.0
29/07:30pm 17.5 15.9 8.9 57 4.5 WSW 7 11 4 6 1022.0 1021.0 0.0
29/07:00pm 18.6 16.2 8.6 52 5.3 WSW 11 17 6 9 1021.8 1020.9 0.0
29/06:30pm 20.2 17.5 8.8 48 6.1 W 13 20 7 11 1021.5 1020.6 0.0
29/06:00pm 20.0 17.2 8.7 48 6.0 W 13 20 7 11 1021.3 1020.4 0.0
29/05:30pm 20.3 17.6 8.9 48 6.1 W 13 20 7 11 1021.1 1020.1 0.0
29/05:00pm 20.4 17.6 8.7 47 6.3 W 13 20 7 11 1021.1 1020.1 0.0
29/04:30pm 20.6 18.1 8.3 45 6.5 WNW 11 17 6 9 1021.1 1020.1 0.0
29/04:00pm 20.5 18.0 8.2 45 6.5 W 11 17 6 9 1021.1 1020.1 0.0
29/03:30pm 21.6 18.4 8.5 43 7.0 WSW 15 22 8 12 1021.2 1020.3 0.0
29/03:00pm 20.5 16.9 6.8 41 7.0 W 15 24 8 13 1021.3 1020.4 0.0
29/02:30pm 20.9 17.6 6.4 39 7.4 WNW 13 20 7 11 1021.4 1020.5 0.0
29/02:00pm 20.7 17.4 6.6 40 7.3 NW 13 24 7 13 1021.6 1020.7 0.0
29/01:30pm 21.0 18.1 6.5 39 7.4 WNW 11 22 6 12 1022.0 1021.0 0.0
29/01:00pm 20.8 17.8 6.0 38 7.5 WNW 11 19 6 10 1022.2 1021.2 0.0
29/12:30pm 20.3 17.0 6.3 40 7.1 NW 13 20 7 11 1022.3 1021.3 0.0
29/12:00pm 19.6 16.7 6.3 42 6.7 WNW 11 19 6 10 1022.4 1021.4 0.0
29/11:30am 19.2 16.4 5.3 40 6.9 NW 9 13 5 7 1022.4 1021.4 0.0
29/11:00am 18.5 16.0 6.4 45 6.1 WNW 9 15 5 8 1022.6 1021.6 0.0
29/10:30am 18.1 16.0 6.6 47 5.8 NNW 7 11 4 6 1022.8 1021.8 0.0
29/10:00am 17.7 15.9 8.0 53 5.0 N 7 11 4 6 1022.8 1021.8 0.0
29/09:30am 15.8 14.1 8.3 61 3.9 NNE 7 9 4 5 1022.6 1021.6 0.0
29/09:00am 14.7 12.5 8.0 64 3.4 NNE 9 11 5 6 1022.3 1021.3 0.0
29/08:30am 13.6 11.3 7.4 66 3.1 NNE 9 9 5 5 1022.1 1021.1 0.0
29/08:00am 12.7 10.2 6.5 66 3.0 N 9 9 5 5 1021.7 1020.8 0.0
29/07:30am 14.5 12.6 6.6 59 3.9 NW 6 9 3 5 1021.4 1020.5 0.0
29/07:00am 13.8 11.9 6.9 63 3.4 NNW 6 7 3 4 1021.1 1020.1 0.0
29/06:30am 14.0 12.0 7.1 63 3.4 NNW 7 9 4 5 1020.9 1019.9 0.0
29/06:00am 12.5 9.9 6.1 65 3.1 NNE 9 9 5 5 1020.6 1019.6 0.0
29/05:30am 12.8 10.6 6.4 65 3.1 NNE 7 9 4 5 1020.2 1019.2 0.0
29/05:00am 13.0 10.9 6.6 65 3.1 NNE 7 9 4 5 1020.2 1019.2 0.0
29/04:30am 13.4 11.5 6.7 64 3.3 NNE 6 7 3 4 1019.9 1018.9 0.0
29/04:00am 12.8 10.6 6.4 65 3.1 NE 7 9 4 5 1019.8 1018.8 0.0
29/03:30am 12.3 10.1 6.4 67 2.8 NNE 7 9 4 5 1020.1 1019.1 0.0
29/03:00am 13.0 11.1 6.8 66 3.0 NNE 6 7 3 4 1020.3 1019.3 0.0
29/02:30am 12.5 10.4 6.5 67 2.9 NNE 7 9 4 5 1020.6 1019.6 0.0
29/02:00am 12.9 10.9 7.1 68 2.9 NNE 7 9 4 5 1020.8 1019.8 0.0
29/01:30am 12.6 10.4 7.7 72 2.4 NNE 9 9 5 5 1021.0 1020.0 0.0
29/01:00am 12.8 10.5 7.3 69 2.7 NNE 9 11 5 6 1021.0 1020.0 0.0
29/12:30am 12.5 9.6 6.3 66 3.0 NE 11 13 6 7 1020.9 1019.9 0.0
29/12:00am 13.9 11.7 6.0 59 3.8 NNE 7 9 4 5 1020.8 1019.8 0.0
 
Date/Time
CDT
Tmp

°C
App
Tmp
°C
Dew
Point
°C
Rel
Hum
%
Delta-T

°C
Wind Press
QNH
hPa
Press
MSL
hPa
Rain
since
9 am
mm
Dir
 
Spd
km/h
Gust
km/h
Spd
kts
Gust
kts
28/11:30pm 14.3 12.3 6.2 58 3.9 NNE 6 7 3 4 1021.1 1020.1 0.0
28/11:00pm 14.1 11.9 6.2 59 3.9 NNE 7 9 4 5 1021.4 1020.5 0.0
28/10:30pm 14.3 12.3 6.2 58 3.9 NNE 6 7 3 4 1021.6 1020.7 0.0
28/10:00pm 14.3 12.2 6.6 60 3.8 NNE 7 9 4 5 1021.6 1020.7 0.0
28/09:30pm 14.7 12.6 6.8 59 3.9 NNE 7 9 4 5 1021.4 1020.5 0.0
28/09:00pm 15.1 13.2 6.7 57 4.2 NNE 6 7 3 4 1021.2 1020.3 0.0
28/08:30pm 15.5 14.8 6.8 56 4.3 CALM 0 0 0 0 1021.1 1020.1 0.0
28/08:00pm 16.0 15.2 6.7 54 4.7 CALM 0 4 0 2 1021.2 1020.3 0.0
28/07:30pm 16.5 14.5 6.9 53 4.8 WNW 7 9 4 5 1020.8 1019.8 0.0
28/07:00pm 16.9 15.4 6.7 51 5.1 W 4 7 2 4 1020.6 1019.6 0.0
28/06:30pm 17.5 15.5 7.0 50 5.3 W 7 11 4 6 1020.5 1019.5 0.0
28/06:00pm 17.8 15.4 7.0 49 5.5 WNW 9 11 5 6 1020.2 1019.2 0.0
28/05:30pm 18.0 14.7 6.5 47 5.8 NW 13 19 7 10 1020.3 1019.3 0.0
28/05:00pm 18.6 15.8 7.1 47 5.9 WNW 11 17 6 9 1020.6 1019.6 0.0
28/04:30pm 18.8 15.5 6.6 45 6.2 WNW 13 24 7 13 1020.8 1019.8 0.0
28/04:00pm 18.6 15.5 7.1 47 5.9 NW 13 22 7 12 1021.1 1020.1 0.0
28/03:30pm 18.9 15.4 7.0 46 6.1 WNW 15 28 8 15 1021.3 1020.4 0.0
28/03:00pm 19.1 15.3 7.5 47 6.0 WNW 17 28 9 15 1021.6 1020.7 0.0
28/02:30pm 19.3 16.1 8.3 49 5.8 NW 15 22 8 12 1021.8 1020.9 0.0
28/02:00pm 18.9 15.1 7.7 48 5.8 WNW 17 26 9 14 1022.2 1021.2 0.0
28/01:30pm 19.1 16.2 8.1 49 5.7 NW 13 24 7 13 1022.5 1021.5 0.0
28/01:00pm 18.5 15.6 8.2 51 5.4 N 13 19 7 10 1022.8 1021.8 0.0
28/12:30pm 18.7 16.0 8.9 53 5.2 NW 13 20 7 11 1023.2 1022.2 0.0
28/12:00pm 17.9 15.3 9.3 57 4.6 NW 13 20 7 11 1023.5 1022.5 0.0
28/11:30am 15.9 14.1 9.3 65 3.5 NNW 9 15 5 8 1023.8 1022.9 0.0
28/11:00am 15.6 14.0 10.2 70 2.9 NNE 9 15 5 8 1024.0 1023.1 0.0
28/10:30am 14.3 11.6 10.5 78 2.0 NE 15 20 8 11 1024.4 1023.5 0.0
28/10:00am 12.8 11.2 12.8 100 0.0 ENE 13 19 7 10 1024.7 1023.8 0.0
28/09:30am 10.9 8.7 10.9 100 0.0 ENE 13 17 7 9 1024.7 1023.8 0.0
28/09:00am 9.5 6.6 9.5 100 0.0 NE 15 20 8 11 1024.7 1023.8 0.2
28/08:30am 8.8 6.1 8.8 100 0.0 NE 13 20 7 11 1024.3 1023.4 0.2
28/08:00am 8.3 4.7 8.3 100 0.0 ENE 17 20 9 11 1024.2 1023.3 0.2
28/07:30am 8.3 5.1 8.3 100 0.0 ENE 15 20 8 11 1024.1 1023.2 0.2
28/07:00am 8.6 5.1 8.6 100 0.0 NE 17 20 9 11 1024.2 1023.3 0.2
28/06:30am 8.7 5.6 8.7 100 0.0 NE 15 20 8 11 1024.1 1023.2 0.0
28/06:00am 9.2 6.2 9.2 100 0.0 NE 15 20 8 11 1024.0 1023.1 0.0
28/05:30am 9.6 7.1 9.6 100 0.0 ENE 13 17 7 9 1024.2 1023.3 0.0
28/05:00am 9.6 6.7 9.6 100 0.0 ENE 15 20 8 11 1024.1 1023.2 0.0
28/04:30am 9.7 6.8 9.7 100 0.0 ENE 15 19 8 10 1024.5 1023.6 0.0
28/04:00am 9.7 7.2 9.7 100 0.0 ENE 13 17 7 9 1024.1 1023.2 0.0
28/03:30am 9.9 7.1 9.9 100 0.0 ENE 15 19 8 10 1024.0 1023.1 0.0
28/03:00am 10.0 7.6 10.0 100 0.0 ENE 13 17 7 9 1024.4 1023.5 0.0
28/02:30am 10.1 7.7 10.1 100 0.0 E 13 19 7 10 1024.6 1023.7 0.0
28/02:00am 10.1 7.7 10.1 100 0.0 E 13 17 7 9 1025.2 1024.2 0.0
28/01:30am 10.3 8.0 10.3 100 0.0 E 13 15 7 8 1025.4 1024.4 0.0
28/01:00am 10.5 8.6 10.5 100 0.0 ENE 11 15 6 8 1025.3 1024.3 0.0
28/12:30am 10.8 9.0 10.8 100 0.0 E 11 13 6 7 1025.4 1024.4 0.0
28/12:00am 10.7 8.9 10.7 100 0.0 E 11 15 6 8 1025.7 1024.7 0.0
 
Date/Time
CDT
Tmp

°C
App
Tmp
°C
Dew
Point
°C
Rel
Hum
%
Delta-T

°C
Wind Press
QNH
hPa
Press
MSL
hPa
Rain
since
9 am
mm
Dir
 
Spd
km/h
Gust
km/h
Spd
kts
Gust
kts
27/11:30pm 11.1 9.6 10.6 97 0.3 ESE 9 13 5 7 1025.8 1024.8 0.0
27/11:00pm 11.3 9.6 9.9 91 0.7 ESE 9 13 5 7 1026.1 1025.2 0.0
27/10:30pm 11.4 9.6 9.3 87 1.1 E 9 13 5 7 1026.1 1025.2 0.0
27/10:00pm 11.8 10.0 9.5 86 1.2 E 9 11 5 6 1026.3 1025.4 0.0
27/09:30pm 11.5 9.5 10.2 92 0.7 ESE 11 17 6 9 1026.2 1025.3 0.0
27/09:00pm 11.0 8.9 9.8 92 0.6 ESE 11 15 6 8 1026.0 1025.1 0.0
27/08:30pm 11.5 9.4 9.6 88 1.0 ESE 11 15 6 8 1025.9 1024.9 0.0
27/08:00pm 11.9 10.2 9.8 87 1.1 SSE 9 15 5 8 1025.8 1024.8 0.0
27/07:30pm 12.5 9.9 9.3 81 1.6 SSE 13 20 7 11 1025.7 1024.7 0.0
27/07:00pm 13.3 10.9 8.6 73 2.4 SSE 11 17 6 9 1025.6 1024.6 0.0
27/06:30pm 13.8 11.4 8.8 72 2.6 S 11 15 6 8 1025.6 1024.6 0.0
27/06:00pm 13.4 11.2 9.5 77 2.0 SSE 11 22 6 12 1025.5 1024.5 0.0
27/05:30pm 13.6 12.4 11.5 87 1.1 WSW 9 13 5 7 1025.3 1024.3 0.0
27/05:00pm 13.4 11.2 10.8 84 1.4 WSW 13 20 7 11 1025.3 1024.3 0.0
27/04:30pm 14.3 12.2 9.9 75 2.3 WSW 11 17 6 9 1025.4 1024.4 0.0
27/04:00pm 14.1 11.5 9.5 74 2.4 SW 13 20 7 11 1025.5 1024.5 0.0
27/03:30pm 14.8 12.7 8.3 65 3.3 SSW 9 17 5 9 1025.5 1024.5 0.0

Latest Capital City Observations: Canberra | Sydney | Melbourne | Brisbane | Adelaide | Perth | Hobart | Darwin

Other Formats:

Comma delimited format used in spreadsheet applications
http://www.bom.gov.au/fwo/IDS60901/IDS60901.94683.axf

JavaScript Object Notation format (JSON) in row-major order
http://www.bom.gov.au/fwo/IDS60901/IDS60901.94683.json